Goteborg, Sweden

7:07 PM CEST on September 25, 2017 (GMT +0200)
Landvetter

Weather History for ESGG - September, 2017

Change the Weather History Date:

Thursday, September 14, 2017

  Actual Average Record
Temperature  
Mean Temperature 52 °F -  
Max Temperature 58 °F - - ()
Min Temperature 46 °F - - ()
Degree Days  
Heating Degree Days 13    
Growing Degree Days 2 (Base 50)    
Moisture  
Dew Point 48 °F    
Average Humidity 90    
Maximum Humidity 100    
Minimum Humidity 63    
Precipitation  
Precipitation 0.00 in - - ()
Sea Level Pressure  
Sea Level Pressure 29.20 in    
Wind  
Wind Speed 7 mph ()    
Max Wind Speed 13 mph    
Max Gust Speed 22 mph    
Visibility 5.9 miles    
Events Fog , Rain , Thunderstorm    
T = Trace of Precipitation, MM = Missing Value Source: Averaged Metar Reports

Daily Weather History Graph

Daily Weather History Graph

Search for Another Location

Airport or City:

Trip Planner

Search our weather history database for the weather conditions in past years. The results will help you decide how hot, cold, wet, or windy it might be!

Date:

Astronomy

Sep. 14, 2017 Rise Set
Actual Time 6:38 AM CEST 7:32 PM CEST
Civil Twilight 5:59 AM CEST 8:11 PM CEST
Nautical Twilight 5:11 AM CEST 8:59 PM CEST
Astronomical Twilight 4:17 AM CEST 9:52 PM CEST
Moon No Moon Rise 4:30 PM CEST (9/14)
Length of Visible Light 14h 12m
Length of Day
12h 53m
Last Quarter, 37% of the Moon is Illuminated
Sep 14
Last Quarter
Sep 20
New
Sep 28
First Quarter
Oct 5
Full
Oct 12
Last Quarter

Hourly Weather History & Observations

Time (CEST) Temp. Windchill Dew Point Humidity Pressure Visibility Wind Dir Wind Speed Gust Speed Precip Events Conditions
12:20 AM 48.2 °F - 48.2 °F 100% 29.03 in 6.2 mi NNE 9.2 mph - N/A   Overcast
12:50 AM 48.2 °F - 48.2 °F 100% 29.03 in 6.2 mi NNE 10.4 mph - N/A   Overcast
1:20 AM 48.2 °F - 46.4 °F 93% 29.03 in 6.2 mi North 8.1 mph - N/A   Overcast
1:50 AM 48.2 °F - 48.2 °F 100% 29.03 in 6.2 mi North 10.4 mph - N/A   Overcast
2:00 AM 49 °F - 47 °F 91% 29.06 in 31 mi North 8.9 mph - -   Mostly Cloudy
2:50 AM 48.2 °F - 48.2 °F 100% 29.06 in 6.2 mi NNE 11.5 mph - N/A   Overcast
3:00 AM 48 °F - 47 °F 95% 29.08 in 31 mi North 8.9 mph - -   Overcast
3:20 AM 48.2 °F - 46.4 °F 93% 29.06 in 6.2 mi North 12.7 mph - N/A   Overcast
3:50 AM 48.2 °F - 46.4 °F 93% 29.06 in 6.2 mi North 11.5 mph - N/A   Overcast
4:00 AM 48 °F - 47 °F 95% 29.10 in 17 mi North 8.9 mph - -   Overcast
4:20 AM 48.2 °F - 46.4 °F 93% 29.09 in 6.2 mi North 11.5 mph - N/A   Overcast
4:50 AM 48.2 °F - 46.4 °F 93% 29.09 in 6.2 mi North 8.1 mph - N/A   Overcast
5:00 AM 48 °F - 47 °F 93% 29.11 in 31 mi North 4.5 mph - -   Partly Cloudy
5:20 AM 48.2 °F - 46.4 °F 93% 29.09 in 6.2 mi NNW 6.9 mph - N/A   Overcast
5:50 AM 46.4 °F 42.9 °F 46.4 °F 100% 29.12 in 6.2 mi North 6.9 mph - N/A   Mostly Cloudy
6:00 AM 47 °F - 46 °F 92% 29.13 in 31 mi NNW 6.7 mph - -   Scattered Clouds
6:20 AM 46.4 °F 42.9 °F 46.4 °F 100% 29.12 in 6.2 mi NNW 6.9 mph - N/A   Scattered Clouds
6:50 AM 46.4 °F 42.4 °F 44.6 °F 93% 29.12 in 0.3 mi NNW 8.1 mph - N/A Fog Fog
7:00 AM 46 °F - 46 °F 98% 29.16 in 0 mi NNW 6.7 mph - - Fog Fog
7:20 AM 46.4 °F 42.9 °F 46.4 °F 100% 29.15 in 0.4 mi NNW 6.9 mph - N/A Fog Fog
7:50 AM 48.2 °F - 46.4 °F 93% 29.15 in 0.5 mi NNW 6.9 mph - N/A Fog Fog
8:00 AM 48 °F - 47 °F 96% 29.16 in 6 mi NNW 6.7 mph - - Fog Fog
8:20 AM 48.2 °F - 48.2 °F 100% 29.15 in 6.2 mi North 6.9 mph - N/A   Overcast
8:50 AM 48.2 °F - 48.2 °F 100% 29.15 in 6.2 mi North 9.2 mph - N/A   Mostly Cloudy
9:00 AM 49 °F - 48 °F 97% 29.18 in 28 mi NNW 6.7 mph - -   Mostly Cloudy
9:20 AM 50.0 °F - 48.2 °F 94% 29.15 in 6.2 mi NNW 5.8 mph - N/A   Mostly Cloudy
9:50 AM 50.0 °F - 48.2 °F 94% 29.18 in 6.2 mi NNW 6.9 mph - N/A   Mostly Cloudy
10:20 AM 50.0 °F - 48.2 °F 94% 29.18 in 6.2 mi North 6.9 mph - N/A   Mostly Cloudy
10:50 AM 51.8 °F - 48.2 °F 88% 29.18 in 6.2 mi ENE 3.5 mph - N/A   Partly Cloudy
11:00 AM 54 °F - 49 °F 77% 29.21 in 31 mi NNE 2.2 mph - -  
11:20 AM 53.6 °F - 48.2 °F 82% 29.21 in 6.2 mi North 3.5 mph - N/A   Scattered Clouds
11:50 AM 55.4 °F - 50.0 °F 82% 29.21 in 6.2 mi NW 3.5 mph - N/A   Scattered Clouds
12:00 PM 55 °F - 47 °F 67% 29.22 in 31 mi North 2.2 mph - -   Partly Cloudy
12:20 PM 57.2 °F - 48.2 °F 72% 29.21 in 6.2 mi West 3.5 mph - N/A   Scattered Clouds
1:00 PM 56 °F - 47 °F 63% 29.23 in 31 mi NNW 4.5 mph - -   Partly Cloudy
1:20 PM 55.4 °F - 48.2 °F 77% 29.21 in 6.2 mi WNW 6.9 mph - N/A   Scattered Clouds
1:50 PM 55.4 °F - 48.2 °F 77% 29.24 in 6.2 mi WNW 6.9 mph - N/A   Mostly Cloudy
2:00 PM 56 °F - 48 °F 67% 29.24 in 25 mi WNW 6.7 mph - -   Overcast
2:20 PM 55.4 °F - 48.2 °F 77% 29.24 in 6.2 mi West 6.9 mph - N/A   Mostly Cloudy
2:50 PM 55.4 °F - 48.2 °F 77% 29.24 in 6.2 mi WNW 8.1 mph - N/A   Mostly Cloudy
3:00 PM 57 °F - 48 °F 64% 29.24 in 28 mi WNW 8.9 mph - -   Mostly Cloudy
3:20 PM 57.2 °F - 48.2 °F 72% 29.24 in 6.2 mi WNW 6.9 mph - N/A   Mostly Cloudy
3:50 PM 55.4 °F - 48.2 °F 77% 29.24 in 6.2 mi WNW 9.2 mph - N/A   Mostly Cloudy
4:20 PM 57.2 °F - 48.2 °F 72% 29.24 in 6.2 mi West 9.2 mph - N/A   Mostly Cloudy
4:50 PM 55.4 °F - 48.2 °F 77% 29.27 in 6.2 mi West 10.4 mph - N/A Thunderstorm Thunderstorm
5:20 PM 55.4 °F - 48.2 °F 77% 29.27 in 6.2 mi WNW 9.2 mph 21.9 mph N/A Rain Rain Showers
5:50 PM 50.0 °F - 48.2 °F 94% 29.27 in 6.2 mi NNW 6.9 mph - N/A Rain Light Rain Showers
6:00 PM 49 °F - 47 °F 92% 29.30 in 25 mi NNW 4.5 mph - - Rain Light Rain
6:20 PM 50.0 °F - 48.2 °F 94% 29.30 in 6.2 mi NW 4.6 mph - N/A   Light Drizzle
6:50 PM 50.0 °F - 48.2 °F 94% 29.30 in 6.2 mi West 3.5 mph - N/A   Partly Cloudy
7:20 PM 50.0 °F - 48.2 °F 94% 29.30 in 6.2 mi WSW 3.5 mph - N/A   Partly Cloudy
7:50 PM 50.0 °F - 48.2 °F 94% 29.30 in 6.2 mi West 3.5 mph - N/A Rain Rain Showers
8:00 PM 49 °F - 48 °F 95% 29.34 in 7 mi WNW 6.7 mph - - Rain Rain
8:20 PM 50.0 °F - 48.2 °F 94% 29.33 in 3.1 mi West 4.6 mph - N/A Rain , Thunderstorm Thunderstorms and Rain
8:50 PM 50.0 °F - 48.2 °F 94% 29.33 in 6.2 mi WSW 4.6 mph - N/A Rain , Thunderstorm Thunderstorms and Rain
9:00 PM 49 °F - 48 °F 94% 29.35 in 31 mi WSW 4.5 mph - - Rain Rain
9:20 PM 48.2 °F - 48.2 °F 100% 29.33 in 6.2 mi West 4.6 mph - N/A   Scattered Clouds
10:00 PM 48 °F - 47 °F 96% 29.36 in 31 mi WNW 4.5 mph - -   Mostly Cloudy
10:20 PM 48.2 °F - 48.2 °F 100% 29.36 in 6.2 mi West 5.8 mph - N/A   Scattered Clouds
10:50 PM 48.2 °F - 48.2 °F 100% 29.36 in 6.2 mi West 5.8 mph - N/A   Mostly Cloudy
11:20 PM 48.2 °F - 46.4 °F 93% 29.36 in 6.2 mi West 4.6 mph - N/A   Scattered Clouds
11:50 PM 48.2 °F - 46.4 °F 93% 29.36 in 6.2 mi West 3.5 mph - N/A   Partly Cloudy